Regional Weather Roundup
Issued by NWS

Home | Current Version | Previous Version | Graphics & Text | Print | Product List | Glossary On
Versions: 1 2 3 4 5 6 7 8 9 10 11 12 13 14 15 16 17 18 19 20 21 22 23 24 25 26 27 28 29 30 31 32 33 34 35 36 37 38 39 40 41 42 43 44 45 46 47 48 49 50
000
ASUS43 KLOT 261806
RWRIL

ILLINOIS REGIONAL WEATHER ROUNDUP
NATIONAL WEATHER SERVICE CHICAGO/ROMEOVILLE IL
1200 PM CST WED NOV 26 2014

NOTE: "FAIR" INDICATES FEW OR NO CLOUDS BELOW 12,000 FEET WITH NO
SIGNIFICANT WEATHER AND/OR OBSTRUCTIONS TO VISIBILITY.

* THESE STATIONS ARE NOT UNDER NWS QUALITY CONTROL. THEY ALSO MAY NOT
  REPORT WEATHER SUCH AS PRECIPITATION OR FOG.

ILZ001-002-007-009-015-016-024-261900-
NORTHWEST ILLINOIS

CITY           SKY/WX    TMP DP  RH WIND       PRES   REMARKS
MOLINE         CLOUDY    28  23  81 E15       30.06F WCI  16
6HR MIN TEMP:  18; 6HR MAX TEMP:  28;

STERLING*      CLOUDY    27  21  80 E14       30.09F WCI  15
SAVANNA*       PTSUNNY   29  23  78 E9        30.09F WCI  21
$$

ILZ003-004-008-010-011-017-018-261900-
NORTH CENTRAL ILLINOIS

CITY           SKY/WX    TMP DP  RH WIND       PRES   REMARKS
ROCKFORD       CLOUDY    25  19  78 SE8       30.13F WCI  16
6HR MIN TEMP:  16; 6HR MAX TEMP:  26; 6HR PCP: TRACE;

FREEPORT*      CLOUDY    24  23  95 E8        30.11F FOG     WCI  15
ROCHELLE*      CLOUDY    27  22  81 E8        30.10F WCI  18
DE KALB*       CLOUDY    22  20  90 SE8       30.11F WCI  13
PERU*          CLOUDY    29  25  83 SE9       30.10F WCI  21
$$

ILZ005-006-012>014-019>023-261900-
NORTHEAST ILLINOIS

CITY           SKY/WX    TMP DP  RH WIND       PRES   REMARKS
CHICAGO-OHARE  CLOUDY    27  20  75 SE7       30.12F WCI  19
6HR MIN TEMP:  18; 6HR MAX TEMP:  27;

CHICAGO-MIDWAY CLOUDY    28  20  71 SE7       30.12F WCI  21
6HR MIN TEMP:  23; 6HR MAX TEMP:  28;

AURORA         CLOUDY    26  18  71 E9        30.12F WCI  17
6HR MIN TEMP:  20; 6HR MAX TEMP:  26;

LANSING*       CLOUDY    26  20  78 E7        30.13F WCI  19
JOLIET*        CLOUDY    26  21  81 SE5       30.13F WCI  20
WAUKEGAN       CLOUDY    26  22  84 CALM      30.12F FOG
6HR MIN TEMP:  16; 6HR MAX TEMP:  26;

DUPAGE AIRPORT CLOUDY    26  19  74 SE9       30.11F WCI  17
6HR MIN TEMP:  19; 6HR MAX TEMP:  26;

KANKAKEE*      CLOUDY   N/A N/A N/A E8        30.12F
WHEELING       CLOUDY    27  21  78 S5        30.14F HAZE    WCI  22
6HR MIN TEMP:  17; 6HR MAX TEMP:  27;

MORRIS*        CLOUDY    27  23  86 SE6       30.12F WCI  20
ROMEOVILLE*    CLOUDY    26  21  79 SE8       30.12F WCI  18
NORTHERLY ISL    N/A     27  21  78 SE6         N/A  WCI  21
$$

LMZ740>746-261900-
SOUTHERN LAKE MICHIGAN

STATION/POSITION SKY/WX   TEMP    WIND        PRES    VSBY  WAVE
                          AIR SEA DIR/SP/G                  HT/PER
                          (F)     (DEG/KT/KT) (MB)    (MI)  (FT/S)
SOUTHERN BUOY              30 42  170/ 10/ 12 1021.1F         1/ 3
WAUKEGAN HARBOR            26     230/  5/  6   N/A
HARRISON CRIB              26     160/ 10/ 14   N/A
BURNHAM HARBOR             27     120/  8/ 11   N/A
CALUMET HARBOR             26     120/  3/  6 1019.2F
MICHIGAN CITY              26     150/  8/ 10   N/A
$$

ILZ025>027-034>036-040-047-049-050-058-095>099-261900-
WEST-CENTRAL ILLINOIS

CITY           SKY/WX    TMP DP  RH WIND       PRES   REMARKS
QUINCY         SNOW      32  29  88 SE10      29.96S VSB 1/2 WCI  24
GALESBURG*     CLOUDY    31  27  87 E13       30.03S WCI  21
MACOMB*        CLOUDY    31  30  93 E15       30.03F WCI  21
JACKSONVILLE*  CLOUDY    34  30  83 SE14      30.00F WCI  25
PITTSFIELD*    CLOUDY    33  30  86 SE10      29.98F WCI  25
$$

ILZ028>032-037-038-041>044-048-051>054-059>061-261900-
CENTRAL ILLINOIS

CITY           SKY/WX    TMP DP  RH WIND       PRES   REMARKS
PONTIAC        CLOUDY    29  25  86 SE7       30.11F WCI  21
BLOOMINGTON    CLOUDY    28  26  92 SE12      30.08F WCI  18
DECATUR        CLOUDY    29  26  89 E12       30.06F FOG     WCI  19
PEORIA         PTSUNNY   32  25  75 E10       30.06F WCI  24
6HR MIN TEMP:  24; 6HR MAX TEMP:  32;

LACON*         CLOUDY    28  24  83 E10       30.08F WCI  19
LINCOLN*       CLOUDY    32  28  86 E13       30.07F WCI  22
SPRINGFIELD    CLOUDY    33  28  81 SE16      30.04F WCI  23
6HR MIN TEMP:  26; 6HR MAX TEMP:  34;

TAYLORVILLE    CLOUDY    32  28  86 SE10      30.03F WCI  24
$$

ILZ033-039-045-046-055>057-062-063-261900-
EAST-CENTRAL ILLINOIS

CITY           SKY/WX    TMP DP  RH WIND       PRES   REMARKS
CHAMPAIGN      CLOUDY    28  25  88 E7        30.08F WCI  21
DANVILLE*      CLOUDY    27  23  82 SE8       30.07F WCI  19
RANTOUL*       CLOUDY    29  24  82 E6        30.08F WCI  23
MATTOON        CLOUDY    28  24  85 SE10      30.06F WCI  19
PARIS*         CLOUDY    29  26  87 E7        30.09F WCI  22
$$

ILZ079-100>102-261900-
SOUTHWEST ILLINOIS

CITY           SKY/WX    TMP DP  RH WIND       PRES   REMARKS
ALTON          CLOUDY    34  30  86 SE12      30.01F WCI  25
BELLEVILLE     PTSUNNY   35  32  90 E8        30.01F WCI  28
CAHOKIA*       CLOUDY    36  30  79 SE9       30.00F WCI  29
SPARTA*        CLOUDY    34  31  87 SE8       30.01F WCI  27
$$

ILZ064>066-069>071-074>076-080>082-084>086-088>090-092>094-261900-
SOUTH-CENTRAL ILLINOIS

CITY           SKY/WX    TMP DP  RH WIND       PRES   REMARKS
CARBONDALE     CLOUDY    39  28  64 SE10      30.03F WCI  32
6HR MIN TEMP:  18; 6HR MAX TEMP:  39;

CAIRO*         CLOUDY    45  32  60 SE12      30.04F
EFFINGHAM*     PTSUNNY   36  26  68 SE8       30.07F WCI  29
MARION         CLOUDY    41  30  65 SE8       30.04F
MT. VERNON     PTSUNNY   36  28  75 E9        30.05F WCI  29
CENTRALIA*     FAIR      35  28  75 SE7       30.03F WCI  29
SALEM*           N/A     37  28  70 SE8       30.04F WCI  31
METROPOLIS*    CLOUDY    42  31  64 SE6         N/A
$$

ILZ067-068-072-073-078-083-087-091-261900-
SOUTHEAST ILLINOIS

CITY           SKY/WX    TMP DP  RH WIND       PRES   REMARKS
LAWRENCEVILLE  PTSUNNY   35  28  75 E5        30.09F WCI  31
FLORA*         PTSUNNY   35  29  80 SE8       30.07F WCI  28
FAIRFIELD*     FAIR      37  29  75 E7        30.06F WCI  31
HARRISBURG*    FAIR      39  32  75 E8        30.07F WCI  34
ROBINSON*      PTSUNNY   33  27  79 E7        30.10F WCI  26
CARMI*         FAIR      40  32  73 SE8       30.06F
$$

ABBREVIATIONS USED IN REMARKS
   TC - TEMPERATURE IN CELSIUS
  WCI - WIND CHILL INDEX
   HX - HEAT INDEX
  VSB - VISIBILITY
$$



USA.gov is the U.S. government's official web portal to all federal, state and local government web resources and services.